EHI
0 0 0 0 1 1 2 3 4 4 4 4 3 2 3 4 6 6 4 3 3 3 4 4 3 1 0 0 0 0 0 0 0 0 0 0 0 0 0 0 0 0 0
0 0 0 1 1 1 2 3 4 4 4 4 2 1 2 3 4 4 3 2 3 3 4 4 4 2 1 0 0 0 0 0 0 0 0 0 0 0 0 0 0 0 0
0 0 0 1 2 2 2 3 5 5 5 4 2 2 2 2 2 2 1 1 2 3 4 5 4 2 1 0 0 1 1 1 0 0 0 0 0 0 0 0 0 0 0
0 0 0 0 1 1 2 2 3 5 5 4 3 3 3 3 3 2 1 1 2 2 3 4 3 2 1 0 1 2 3 2 1 0 0 0 0 0 0 0 0 0 0
0 0 0 0 1 1 2 2 2 4 5 4 4 3 2 2 2 2 2 1 1 1 1 1 1 1 0 0 1 3 4 2 1 0 0 0 0 0 0 0 0 0 0
0 0 0 0 1 2 2 2 1 2 3 2 1 1 1 1 1 1 1 1 0 0 0 0 1 0 0 0 1 2 3 1 0 0 0 0 0 0 0 0 0 0 0
0 0 0 0 0 1 1 1 1 1 1 0 0 0 0 0 0 0 0 0 0 0 0 0 0 0 0 0 0 1 1 1 0 0 0 0 0 0 0 0 0 0 0
0 0 0 0 0 0 0 0 0 0 0 0 0 0 0 0 0 0 0 0 0 0 0 0 0 1 1 1 1 0 0 0 0 0 0 0 0 0 0 0 0 0 0
0 0 0 0 0 0 0 0 0 1 1 0 0 0 0 0 0 0 0 0 0 0 0 0 0 2 3 3 3 1 0 0 0 0 0 0 0 0 0 0 0 0 1
0 0 0 0 0 0 0 0 0 1 1 0 0 0 0 0 0 0 0 0 0 0 0 0 0 2 4 5 4 2 1 0 0 0 0 0 0 0 0 1 1 1 1
0 0 0 0 0 0 0 0 0 1 1 0 0 0 0 0 0 0 0 1 0 0 0 0 0 1 4 4 3 2 1 0 0 0 0 0 0 0 0 1 1 1 1
0 0 0 0 0 0 0 0 0 0 0 0 0 0 0 0 0 0 0 0 0 0 0 0 0 1 1 1 1 1 0 0 0 0 0 0 0 0 0 0 1 1 0
0 0 0 0 0 0 0 0 0 0 0 0 0 0 0 0 0 0 0 0 0 0 0 0 1 0 0 0 0 0 0 0 0 0 0 0 0 0 0 0 1 1 1
0 0 0 0 0 0 0 0 0 0 0 0 0 0 0 0 0 0 0 0 0 0 0 0 0 0 0 0 0 0 0 0 0 0 0 0 0 0 0 0 1 2 1
0 0 0 0 0 0 0 0 0 0 0 0 0 0 0 0 0 0 0 0 0 0 0 0 0 0 0 0 0 0 0 0 0 0 0 0 0 0 0 0 1 1 1
0 0 0 0 0 0 0 0 0 0 0 0 0 0 0 0 0 0 0 0 0 0 0 0 0 0 0 0 0 0 0 0 0 0 0 0 0 0 0 0 0 0 0
0 0 0 0 0 0 0 0 0 0 0 0 0 0 0 0 0 0 0 0 0 0 0 0 0 0 0 0 0 0 0 0 0 0 0 0 0 0 0 0 0 0 0
0 0 0 0 0 0 0 0 0 0 0 0 0 0 0 0 0 0 0 0 0 0 0 0 0 0 0 0 0 0 0 0 0 0 0 0 0 0 0 0 0 0 0
0 0 0 0 0 0 0 0 0 0 0 0 0 0 0 0 0 0 0 0 0 0 0 0 0 0 0 0 0 0 0 0 0 0 0 0 0 0 0 0 0 0 0
0 0 0 0 0 0 0 0 0 0 0 0 0 0 0 0 0 0 0 0 0 0 0 0 0 0 0 0 0 0 0 0 0 0 0 0 0 0 0 0 0 0 0
0 0 0 0 0 0 0 0 0 0 0 0 0 0 0 0 0 0 0 0 0 0 0 0 0 0 0 0 0 0 0 0 0 0 0 0 0 0 0 0 0 0 0
0 0 0 0 0 0 0 0 0 0 0 0 0 0 0 0 0 0 0 0 0 0 0 0 0 0 0 0 0 0 0 0 0 0 0 0 0 0 0 0 0 0 0
0 0 0 0 0 0 0 0 0 0 0 0 0 0 0 0 0 0 0 0 0 0 0 0 0 0 0 0 0 0 0 0 0 0 0 0 0 0 0 0 0 0 0
0 0 0 0 0 0 0 0 0 0 0 0 0 0 0 0 0 0 0 0 0 0 0 0 0 0 0 0 0 0 0 0 0 0 0 0 0 0 0 0 0 0 0
0 0 0 0 0 0 0 0 0 0 0 0 0 0 0 0 0 0 0 0 0 0 0 0 0 0 0 0 0 0 0 0 0 0 0 0 0 0 0 0 0 0 0
0 0 0 0 0 0 0 0 0 0 0 0 0 0 0 0 0 0 0 0 0 0 0 0 0 0 0 0 0 0 0 0 0 0 0 0 0 0 0 0 0 0 0
Wind_Speed
1 2 8 10 11 12 13 13 13 13 13 13 13 13 12 12 11 11 11 10 10 9 9 9 9 9 9 8 8 7 7 7 7 6 6 6 6 6 7 6 6 4 6
4 3 9 10 12 13 13 13 13 13 13 13 13 12 11 11 11 10 10 9 9 9 8 8 8 8 8 8 7 7 6 6 6 6 6 5 5 6 6 6 5 3 6
5 4 7 10 11 12 13 12 12 12 12 12 12 11 11 10 10 9 9 9 8 8 8 8 7 7 7 7 7 6 6 5 5 6 6 3 3 5 5 5 5 5 5
6 5 6 10 11 11 12 12 12 12 11 11 11 10 10 9 9 8 8 8 8 8 7 7 7 7 7 7 6 6 5 5 5 5 3 2 2 4 5 5 5 5 4
6 5 6 10 11 11 11 12 12 11 11 11 10 10 9 8 8 8 7 7 7 7 7 6 7 7 7 6 6 6 5 6 6 5 3 2 2 3 4 4 4 4 3
5 5 6 11 11 11 11 11 11 11 10 10 9 8 8 7 7 7 6 6 6 6 6 5 6 6 6 6 6 6 6 7 6 4 3 2 1 2 3 3 3 2 2
6 4 5 10 11 11 11 11 10 10 9 8 7 7 6 6 6 6 5 5 5 5 5 5 5 5 5 5 6 6 6 7 4 3 2 2 1 2 3 3 2 2 2
6 5 5 9 11 11 10 10 9 9 8 7 6 6 5 4 4 4 4 4 4 4 4 4 4 4 4 5 5 5 5 5 4 3 2 2 1 1 2 2 2 2 2
6 5 4 4 6 8 9 8 8 8 7 6 5 5 5 4 4 3 3 3 3 3 3 3 3 3 4 5 5 5 5 6 3 2 2 1 1 1 1 1 1 2 2
5 5 4 4 4 4 4 6 7 6 6 5 5 4 5 5 5 4 4 3 4 3 3 4 4 4 4 5 5 5 5 5 2 2 2 2 2 1 1 1 1 2 3
4 4 3 4 4 4 3 4 5 5 5 6 5 6 6 4 4 4 4 4 4 4 4 5 5 6 6 6 6 6 5 2 2 1 1 2 2 2 2 2 2 2 3
3 2 2 3 3 3 2 3 3 3 4 4 3 4 3 3 3 4 5 6 5 5 5 6 6 6 5 3 4 5 2 2 2 1 2 4 4 4 3 2 2 2 3
2 2 2 2 2 3 2 2 2 2 2 3 4 3 3 3 3 3 3 4 4 5 4 4 4 3 3 3 2 2 2 2 1 2 3 4 4 4 3 3 3 3 3
3 2 1 2 2 2 3 2 2 2 2 2 2 3 2 2 2 2 2 2 2 2 3 3 2 3 3 3 3 3 3 2 2 2 2 5 5 5 4 4 3 3 3
3 1 1 2 3 2 3 2 2 2 2 2 2 2 2 2 2 2 2 2 2 2 2 2 2 3 3 3 3 3 3 3 3 3 3 5 6 6 5 5 4 4 4
4 3 2 3 3 3 3 2 2 2 2 2 2 2 2 2 2 2 2 2 2 2 2 2 3 3 2 3 3 3 3 3 3 3 2 4 7 7 6 5 5 6 5
4 4 4 4 3 4 3 2 2 2 2 2 2 2 2 2 2 2 2 2 2 2 3 3 3 3 3 3 4 4 3 3 3 3 3 3 4 6 7 6 5 5 5
4 4 4 4 4 4 3 2 2 2 2 2 2 2 2 3 3 2 2 2 2 2 3 3 3 3 3 3 3 3 3 3 4 3 3 4 3 3 5 7 6 6 5
5 5 4 4 5 4 3 3 3 3 3 2 2 2 2 3 3 3 2 2 2 3 3 3 3 2 3 3 3 4 4 4 4 4 5 5 4 4 3 5 7 7 7
5 4 5 4 4 4 3 3 3 3 3 3 2 2 2 2 3 3 3 3 3 3 3 3 3 3 3 2 4 4 4 3 4 4 4 4 4 5 5 5 4 5 8
5 5 5 5 4 4 2 2 2 2 2 2 2 3 3 3 3 3 3 3 3 3 2 2 2 4 3 2 3 3 4 4 5 4 4 4 5 5 5 5 4 4 4
6 5 5 5 5 4 3 2 2 2 1 1 2 3 3 3 2 3 3 2 2 3 3 3 3 2 3 3 2 3 3 4 4 5 4 5 5 5 6 6 6 5 4
6 6 6 5 5 4 4 3 3 3 3 2 3 2 3 3 3 3 3 3 3 3 2 2 2 3 2 3 3 3 3 1 2 3 4 5 5 5 5 4 6 6 5
6 6 6 5 5 4 5 4 4 3 2 0 0 1 2 3 3 3 3 3 3 2 3 2 3 2 3 2 2 3 2 2 2 1 3 4 5 5 5 5 5 5 5
6 5 5 5 4 4 4 5 5 3 2 1 1 2 3 3 3 3 3 3 3 2 3 3 3 3 2 2 2 1 3 3 2 2 1 3 3 3 4 4 4 4 5
5 5 5 6 4 4 5 5 5 5 4 3 2 2 2 2 3 3 3 3 3 3 3 3 3 4 3 3 2 2 2 2 1 2 2 1 2 3 3 4 4 4 4
Wind_Direction
162 179 139 128 123 119 116 114 112 110 108 106 105 104 103 103 102 100 98 96 94 92 91 90 89 90 88 85 84 83 84 87 89 88 87 86 86 90 88 86 83 87 97
142 141 135 128 123 120 117 114 112 110 108 107 106 104 104 103 103 101 99 97 95 92 89 89 86 85 84 82 80 78 78 81 84 81 78 75 83 92 93 90 87 93 96
120 118 126 125 121 120 118 117 114 111 109 108 108 106 103 102 102 101 100 97 94 92 88 85 86 83 80 76 74 73 73 73 81 78 70 54 60 87 93 90 88 89 90
122 115 123 125 120 119 119 118 115 112 108 108 107 105 103 102 101 99 99 96 93 88 86 82 82 79 76 72 67 66 66 69 76 74 61 47 38 90 90 84 86 84 86
117 116 130 125 122 122 120 119 115 112 110 107 104 102 101 100 99 97 95 93 91 86 80 77 75 73 72 69 65 64 63 67 68 65 61 51 34 91 92 82 80 80 81
107 111 128 126 126 123 120 118 117 114 111 108 106 104 103 100 96 94 92 89 86 84 77 70 67 66 64 61 60 62 63 68 63 59 55 46 30 91 90 76 76 70 74
105 103 122 124 121 120 116 116 114 111 109 107 104 99 98 95 94 92 86 82 79 76 69 62 57 57 54 55 58 61 63 67 68 60 48 33 19 77 82 67 64 61 54
106 102 109 118 118 117 114 112 110 105 102 98 95 90 87 87 91 90 85 77 69 62 57 54 48 47 50 58 64 66 66 67 64 49 36 15 356 68 73 54 42 42 56
93 89 80 87 102 112 112 111 109 103 96 92 88 82 76 73 67 69 64 63 57 45 40 46 49 52 53 61 65 68 70 71 64 33 21 355 340 41 77 32 30 30 41
79 76 74 68 65 68 78 100 101 95 89 82 73 66 56 44 35 31 27 30 38 37 39 50 56 58 59 62 63 65 67 64 55 27 4 334 347 21 57 26 43 42 45
83 65 68 68 62 61 59 70 71 70 64 60 51 50 49 34 22 13 6 15 24 32 40 49 58 63 62 58 58 59 58 60 48 21 358 357 6 20 36 35 59 54 52
110 86 80 79 71 61 57 53 41 42 39 41 42 43 44 36 18 21 10 19 24 34 40 46 53 56 52 44 45 50 51 53 42 12 5 11 21 28 41 46 60 72 69
138 118 100 98 82 76 61 57 45 38 37 33 36 39 41 35 21 25 20 16 20 33 31 32 41 41 44 42 39 41 47 51 31 7 0 11 20 26 37 45 53 70 72
132 149 119 110 92 81 76 65 62 56 49 40 28 38 49 40 29 23 27 19 28 29 35 36 41 44 45 43 48 49 44 45 37 17 0 14 20 25 37 42 52 64 75
144 157 138 121 109 91 81 67 67 58 60 53 42 39 59 65 47 36 36 37 37 37 43 47 50 51 48 40 45 55 45 38 34 29 2 14 20 20 30 38 54 58 67
163 164 142 119 114 104 92 82 69 63 64 58 46 38 61 78 75 64 55 43 34 36 46 54 58 58 49 45 44 43 40 34 34 31 19 12 16 16 21 34 49 52 54
161 151 146 134 117 109 98 89 81 68 68 57 43 41 57 72 79 77 69 51 32 40 53 55 50 51 53 51 42 36 39 35 35 28 25 19 8 18 26 29 38 43 46
147 149 154 145 128 115 102 89 75 67 65 49 41 44 51 64 76 77 74 56 42 52 55 60 51 54 48 48 42 30 32 32 31 29 30 24 18 18 22 28 35 37 42
156 152 146 132 130 123 109 89 74 63 56 44 40 40 43 58 70 78 71 59 58 60 51 57 52 63 60 51 53 45 35 34 27 33 32 27 22 22 25 28 31 39 40
149 145 143 132 130 122 103 80 62 52 39 37 36 31 48 58 68 75 69 58 62 68 54 53 61 54 59 53 62 53 35 30 35 36 33 27 23 28 33 35 27 30 33
144 147 154 147 143 127 105 97 87 62 24 24 22 29 46 59 66 76 74 61 60 71 72 73 74 61 43 28 63 39 21 30 40 33 28 30 28 26 32 33 29 29 23
161 161 163 160 154 143 125 116 113 111 73 38 8 23 29 49 60 78 80 76 69 75 66 60 71 78 41 29 81 78 30 9 11 20 22 32 27 25 29 29 26 25 21
173 173 170 167 157 145 129 108 84 63 43 30 15 8 4 34 57 70 78 81 74 78 80 64 68 90 85 35 47 110 115 123 344 357 19 26 23 29 22 19 28 25 24
184 172 163 159 154 150 143 136 133 129 122 119 341 5 12 33 50 62 73 78 77 76 80 68 68 77 102 79 44 48 91 138 118 21 359 9 22 29 22 23 21 19 20
177 166 162 153 154 153 150 146 137 130 129 96 55 53 31 26 36 51 64 74 76 73 76 72 70 70 80 99 91 76 66 57 70 112 38 348 4 7 14 17 20 18 16
164 158 156 154 154 150 148 146 145 143 137 121 100 78 39 24 25 38 59 66 70 72 74 78 78 78 78 84 82 80 99 99 91 104 114 15 355 339 357 13 19 10 9